• Join FlightAware (Why Join?)
  • Login
  • US Flag 
12:22PM EDT


 

Airport Tracker/Info


-or-


 

Live Flight TrackerFlight Track Log ✈ VNR160 ✈ 18-Apr-2013 ✈ KSAT - KADS

Flight Track Log - Related Links

Times and Time Zones

All times are in EDT time to prevent confusion due to time zone crossing. See the VNR160 flight status page for this flight to view local times or setup timezone preferences in your user account.

Time Position Orientation Groundspeed Altitude Reporting Facility
EDT Latitude Longitude Course Direction KTS MPH feet Rate Location/Type
10:11AM 29.5528 -98.4939 337° Northwest 138 159 1,800  Level Houston Center
10:11AM 29.5725 -98.5036 337° Northwest 146 168 2,900 1,560 Climbing Houston Center
10:12AM 29.6172 -98.5319 331° Northwest 195 224 4,200 1,140 Climbing Houston Center
10:13AM 29.6350 -98.5353 351° North 194 223 4,500 960 Climbing Houston Center
10:13AM 29.6636 -98.5336 North 238 274 5,000 1,440 Climbing Houston Center
10:14AM 29.7039 -98.5222 14° North 234 269 6,000 1,740 Climbing Houston Center
10:14AM 29.7292 -98.5161 12° North 246 283 6,800 1,020 Climbing Houston Center
10:15AM 29.7694 -98.5006 19° North 244 281 7,100 300 Climbing Houston Center
10:15AM 29.8006 -98.4931 12° North 274 315 7,100 -120 Level Houston Center
10:16AM 29.8550 -98.4733 17° North 295 339 7,000  Descending Houston Center
10:16AM 29.8842 -98.4661 12° North 293 337 7,100 1,440 Climbing Houston Center
10:17AM 29.9289 -98.4506 17° North 286 329 8,500 2,280 Climbing Houston Center
10:17AM 29.9556 -98.4431 14° North 260 299 9,400 1,920 Climbing Houston Center
10:18AM 29.9939 -98.4303 16° North 244 281 10,500 1,740 Climbing Houston Center
10:19AM 30.0678 -98.4186 North 253 291 12,400 1,800 Climbing Houston Center
10:20AM 30.1433 -98.4161 North 252 290 14,300 1,560 Climbing Houston Center
10:21AM 30.2178 -98.4264 353° North 257 296 15,700 960 Climbing Houston Center
10:22AM 30.3014 -98.4517 345° North 299 344 16,300 960 Climbing Houston Center
10:23AM 30.3858 -98.4778 345° North 309 356 17,800 1,380 Climbing Houston Center
10:24AM 30.4692 -98.5039 345° North 306 352 19,200 900 Climbing Houston Center
10:25AM 30.5561 -98.5311 345° North 322 371 19,700 360 Climbing Houston Center
10:26AM 30.6506 -98.5622 344° North 343 395 20,000 300 Climbing Houston Center
10:27AM 30.7642 -98.5975 345° North 353 406 20,400 720 Climbing Houston Center
10:28AM 30.8583 -98.6261 345° North 348 400 21,600 720 Climbing Houston Center
10:29AM 30.9481 -98.6564 344° North 336 387 22,000 180 Climbing Houston Center
10:30AM 31.0433 -98.6858 345° North 344 396 22,000  Level Houston Center
10:31AM 31.1411 -98.7175 345° North 357 411 22,000  Level Houston Center
10:32AM 31.2419 -98.7492 345° North 365 420 22,000  Level Houston Center
10:33AM 31.3414 -98.7800 345° North 367 422 22,000  Level Houston Center
10:34AM 31.4372 -98.8133 343° North 363 418 22,000  Level Fort Worth Center
10:35AM 31.5286 -98.8417 345° North 363 418 22,000  Level Fort Worth Center
10:36AM 31.6286 -98.8747 344° North 363 418 22,000  Level Fort Worth Center
10:37AM 31.7308 -98.8764 359° North 363 418 22,000  Level Fort Worth Center
10:38AM 31.7925 -98.7650 57° Northeast 329 379 22,000  Level Fort Worth Center
10:39AM 31.8483 -98.6386 62° Northeast 377 434 22,000  Level Fort Worth Center
10:40AM 31.9078 -98.5122 61° Northeast 395 455 22,000  Level Fort Worth Center
10:41AM 31.9631 -98.3903 62° Northeast 411 473 22,000  Level Fort Worth Center
10:42AM 32.0225 -98.2686 60° Northeast 417 480 22,000  Level Fort Worth Center
10:43AM 32.0797 -98.1464 61° Northeast 412 474 22,000 -480 Level Fort Worth Center
10:44AM 32.1033 -98.0142 78° East 412 474 21,100 -600 Descending Fort Worth Center
10:45AM 32.1247 -97.8869 79° East 399 459 20,900 -540 Descending Fort Worth Center
10:46AM 32.1503 -97.7619 76° East 393 452 20,100 -960 Descending Fort Worth Center
10:47AM 32.1733 -97.6342 78° East 391 450 19,000 900 Descending Fort Worth Center
10:48AM 32.2217 -97.5239 63° Northeast 376 433 22,000 -2,880 Climbing Fort Worth Center
10:49AM 32.3094 -97.4575 33° Northeast 361 415 13,300 -5,460 Descending Fort Worth Center
10:50AM 32.3742 -97.3764 47° Northeast 348 400 11,100 -2,220 Descending Fort Worth Center
10:51AM 32.3761 -97.2733 89° East 300 345 8,900 -1,980 Descending Fort Worth Center
10:52AM 32.3800 -97.1747 87° East 295 339 7,200 -900 Descending Fort Worth Center
10:53AM 32.3778 -97.0911 92° East 284 327 7,100 -120 Descending Fort Worth Center
10:54AM 32.4153 -97.0147 60° Northeast 252 290 7,000 -720 Descending Fort Worth Center
10:55AM 32.4547 -96.9456 56° Northeast 259 298 5,700 -1,020 Descending Fort Worth Center
10:56AM 32.4961 -96.8714 56° Northeast 267 307 5,000 -360 Descending Fort Worth Center
10:57AM 32.5586 -96.8417 22° Northeast 223 257 5,000  Level Fort Worth Center
10:58AM 32.6086 -96.8239 17° North 207 238 5,000 -240 Level Fort Worth Center
10:59AM 32.6692 -96.8064 14° North 201 231 4,600 -540 Descending Fort Worth Center
10:59AM 32.6833 -96.8000 21° North 209 241 4,300 -480 Descending Dallas / Fort Worth TRACON
11:01AM 32.7500 -96.7833 12° North 185 213 4,000 -420 Descending Dallas / Fort Worth TRACON
11:02AM 32.7833 -96.7667 23° Northeast 164 189 3,500 -300 Descending Dallas / Fort Worth TRACON
11:03AM 32.8333 -96.7833 344° North 145 167 3,500 -360 Level Dallas / Fort Worth TRACON
11:03AM 32.8667 -96.7833 360° North 124 143 2,900 -720 Descending Dallas / Fort Worth TRACON
11:04AM 32.8833 -96.8000 320° Northwest 124 143 2,300 -720 Descending Dallas / Fort Worth TRACON
11:05AM 32.9167 -96.8167 337° Northwest 114 131 1,600 -660 Descending Dallas / Fort Worth TRACON
11:06AM 32.9500 -96.8333 337° Northwest 118 136 1,000 -600 Descending Dallas / Fort Worth TRACON